Volver al catálogo

CRRES DEB

CANISTER

ActivoGTO
NORAD 21636·DEBRIS·🇺🇸 United States

Lanzado Jul 25, 1990 desde Cape Canaveral Space Force Station

Loading…

TLE

ObsoletoSource: Space-Track

Época: Sep 10, 2026, 23:33 UTC

1 21636U 90065N   26253.98155781  .00000117  00000-0  55231-3 0  9998
2 21636  17.7717 287.2254 7155565  17.1829 358.1524  2.34741436123044

Sigue CRRES DEB en tiempo real con AllMySat

Download on the App Store